#timestamp,LO_Frequency,Hit,StdDev 
1606341615.8,286047000.6,N
1606341635.6,286047001.0,N
1606341655.5,286047002.1,N
1606341675.3,286047002.4,N
1606341695.2,286047000.9,N
1606341715.9,286047002.3,N
1606341735.7,286047002.6,N
1606341755.6,286047004.0,N
1606341775.4,286047002.2,N
1606341795.2,286047004.1,N
1606341815.1,286047002.7,N
1606341816.0,286047002.7,N
1606341835.8,286047002.6,N
1606341855.7,286047002.2,N
1606341875.5,286047004.0,N
1606341895.3,286047003.2,N
1606341915.2,286047005.6,Y
1606341935.0,286047000.6,P
1606341935.9,286047000.6,N
1606341955.8,286046999.4,N
1606341975.6,286047001.1,N
1606341995.4,286046996.8,Y
1606342015.3,286046996.3,P
1606342035.1,286046991.7,P
1606342055.8,286046995.2,N
1606342075.7,286046996.4,N
1606342095.5,286046995.4,N
1606342115.3,286046997.6,N
1606342135.2,286046996.1,N
1606342155.0,286046993.3,N
1606342155.9,286046993.3,N
1606342175.8,286046995.3,N
1606342195.6,286046993.8,N
1606342215.4,286046996.1,N
1606342235.3,286046994.7,N
1606342255.1,286046994.3,N
1606342275.9,286046994.7,N
1606342295.7,286046991.9,Y
1606342315.5,286046998.0,P
1606342335.4,286046996.6,N
1606342355.2,286046997.0,N
1606342375.0,286046996.6,Y
1606342375.9,286046996.6,P
1606342395.8,286047000.3,P
1606342415.6,286046998.4,N
1606342435.5,286046997.6,N
1606342455.3,286046996.4,N
1606342475.1,286046995.2,Y
1606342495.9,286046998.7,P
1606342515.7,286046998.7,N
1606342535.5,286047001.0,N
1606342555.4,286047001.1,N
1606342575.2,286047001.1,N
1606342595.1,286046998.6,N
1606342596.0,286046998.6,N
1606342615.8,286046998.6,N
1606342635.6,286046998.1,N
1606342655.5,286046998.5,N
1606342675.3,286047000.7,N
1606342695.1,286046999.8,N
1606342715.9,286046999.8,N
1606342735.7,286047000.5,N
1606342755.6,286046998.5,N
1606342775.4,286046999.2,N
1606342795.2,286046996.7,Y
1606342815.1,286046996.6,P
1606342816.0,286046996.6,N
1606342835.8,286046998.1,N
1606342855.7,286046998.1,N
1606342875.5,286046999.5,N
1606342895.3,286046997.0,N
1606342915.2,286046997.0,N
1606342935.0,286046998.9,N
1606342935.9,286046998.9,N
1606342955.8,286046996.5,Y
1606342975.6,286047000.1,P
1606342995.4,286047002.8,N
1606343015.3,286047002.1,N
1606343035.1,286047002.5,N
1606343055.8,286047000.7,N
1606343075.7,286047000.7,N
1606343095.5,286047000.9,N
1606343115.3,286046999.4,N
1606343135.2,286046999.6,N
1606343155.0,286047000.8,N
1606343155.9,286047000.8,N
1606343175.8,286046999.0,N
1606343195.6,286047000.8,N
1606343215.4,286047001.2,N
1606343235.3,286046998.6,N
1606343255.1,286047000.2,N
1606343275.8,286047000.6,N
1606343295.7,286047000.9,N
1606343315.5,286047000.9,N
1606343335.4,286047000.5,N
1606343355.2,286047001.1,N
1606343375.0,286047000.4,N
1606343375.9,286047000.4,N
1606343395.8,286047000.3,N
1606343415.6,286047000.7,N
1606343435.5,286047002.4,N
1606343455.3,286047002.7,N
1606343475.1,286046999.9,N
1606343495.9,286046997.1,N
1606343515.7,286046998.3,N
1606343535.5,286047000.2,N
1606343585.4,286047002.2,E
1606343595.3,286047001.6,N
1606343615.2,286047001.0,P
1606343635.9,286046999.7,N
1606343655.7,286047002.4,N
1606343675.6,286047002.5,N
1606343695.4,286047001.9,N
1606343715.3,286047001.8,N
1606343735.1,286047002.0,N
1606343736.0,286047002.0,N
1606343755.8,286047003.3,Y
1606343775.7,286047002.2,P
1606343795.5,286047000.1,N
1606343815.3,286047000.6,N
1606343835.2,286047002.0,N
1606343855.0,286047003.8,Y
1606343855.9,286047003.8,P
1606343875.8,286047002.1,N
1606343895.6,286047001.7,N
1606343915.4,286047001.6,N
1606343935.3,286046999.7,N
1606343955.1,286047000.5,N
1606343975.8,286047000.5,N
1606343995.7,286047000.8,N
1606344015.5,286046999.7,N
1606344035.4,286047001.0,N
1606344055.2,286047001.0,N
1606344075.0,286047001.2,N
1606344075.9,286047001.2,N
1606344095.8,286046998.2,N
1606344115.6,286046999.8,N
1606344135.4,286046999.8,N
1606344155.3,286047000.1,N
1606344175.1,286046999.7,N
1606344195.9,286047002.7,N
1606344215.7,286047002.0,N
1606344235.5,286047003.9,Y
1606344255.4,286047002.3,P
1606344275.2,286047001.0,N
1606344295.0,286046998.1,N
1606344295.9,286046998.1,N
1606344315.8,286046999.7,N
1606344335.6,286047002.4,N
1606344355.5,286047001.6,N
1606344375.3,286047003.7,N
1606344395.1,286047003.6,N
1606344415.9,286047004.3,N
1606344435.7,286047003.7,N
1606344455.5,286047004.0,N
1606344475.4,286047003.7,N
1606344495.2,286047004.1,N
1606344515.1,286047001.3,N
1606344516.0,286047001.3,N
1606344535.8,286047001.4,N
1606344555.6,286047003.0,N
1606344575.5,286047005.6,N
1606344595.3,286047002.9,N
1606344615.1,286047004.6,N
1606344635.9,286047006.9,Y
1606344655.7,286047003.7,P
1606344675.6,286047001.4,N
1606344695.4,286047004.2,P
1606344715.2,286047003.4,Y
1606344735.1,286046999.9,P
1606344736.0,286046999.9,N
1606344755.8,286046999.9,N
1606344775.7,286046999.6,N
1606344795.5,286046999.2,N
1606344815.3,286046996.9,N
1606344835.2,286046996.6,N
1606344855.9,286046999.2,N
1606344875.7,286046997.0,N
1606344895.6,286046997.9,N
1606344915.4,286046997.4,N
1606344935.2,286046998.3,N
1606344955.1,286046999.6,N
1606344956.0,286046999.6,N
1606344975.8,286046998.8,N
1606344995.7,286046998.3,N
1606345015.5,286046998.2,N
1606345035.3,286046999.6,N
1606345055.2,286046996.7,N
1606345075.0,286046998.9,N
1606345075.9,286046998.9,N
1606345095.7,286046999.5,N
1606345115.6,286046997.0,N
1606345135.4,286046999.1,N
1606345155.3,286046998.9,N
1606345175.1,286046999.1,N
1606345176.0,286046999.1,N
1606345195.8,286046998.5,N
